Weather Roundup
Issued by NWS Springfield, MO

Home | Current Version | Previous Version | Text Only | Print | Product List | Glossary On
Versions: 1 2 3 4 5 6 7 8 9 10 11 12 13 14 15 16 17 18 19 20 21 22 23 24 25 26 27 28 29 30 31 32 33 34 35 36 37 38 39 40 41 42 43 44 45 46 47 48 49 50
000
NZUS99 KSGF 020207
HRRSGF

HOURLY WEATHER
NATIONAL WEATHER SERVICE SPRINGFIELD MO
900 PM CDT TUE SEP 01 2015

......SGF CWA......

CITY           SKY/WX    TMP DP  RH WIND       PRES   REMARKS
SPRINGFIELD    CLEAR     78  68  71 S7        30.07R
JOPLIN         CLEAR     78  65  63 S7        30.05R
WEST PLAINS    CLEAR     77  70  79 SE3       30.12R
ROLLA          CLEAR     77  70  79 S8        30.08R
OSAGE BEACH    CLEAR     79  66  65 SE3       30.06S
BRANSON        CLEAR     75  66  73 S5        30.09R

......SURROUNDING SGF CWA......

CITY           SKY/WX    TMP DP  RH WIND       PRES   REMARKS
CHANUTE        CLEAR     76  69  79 SE8       30.01R
PARSONS        CLEAR     77  69  76 SE5       30.02R
COFFEYVILLE    CLEAR     77  70  79 SE7       30.01R
EMPORIA        CLEAR     77  66  68 SE12      29.99R
GROVE OK       CLEAR     77  70  78 CALM      30.05R
ROGERS AR      CLEAR     77  68  73 SE5       30.08R
SILOAM SPRINGS CLEAR     75  63  64 SE5       30.05R
HARRISON AR    CLEAR     75  65  70 S6        30.09R
NEAR YELLVILLE CLEAR     79  66  65 CALM      30.06R

......KANSAS AND MISSOURI......

CITY           SKY/WX    TMP DP  RH WIND       PRES   REMARKS
KANSAS CTY INT CLEAR     75  67  76 S9        30.00S
DOWNTOWN KC    CLEAR     82  67  60 S7        30.00R
COLUMBIA       CLEAR     75  69  81 SE6       30.05R
SEDALIA        CLEAR     79  69  71 S3        30.05R
ST JOSEPH      CLEAR     78  67  68 S10       29.97R
ST LOUIS       PTCLDY    85  69  58 S5        30.07R
SPIRIT OF STL  CLEAR     79  73  82 S5        30.05R
KIRKSVILLE     CLEAR     74  69  85 S6        30.03R
WICHITA        PTCLDY    83  67  58 SE16      29.96R
TOPEKA         CLEAR     79  66  64 SE9       29.98R
OLATHE         CLEAR     76  68  76 S5        30.02R

......TENNESSEE......

CITY           SKY/WX    TMP DP  RH WIND       PRES   REMARKS
MEMPHIS        CLOUDY    84  69  60 SE3       30.07R
NASHVILLE      MOCLDY    79  67  66 CALM      30.10S

......ARKANSAS.......

CITY           SKY/WX    TMP DP  RH WIND       PRES   REMARKS
FAYETTEVILLE   CLEAR     71  70  96 S3        30.07R
FT SMITH       CLEAR     82  63  52 S3        30.02R
LITTLE ROCK    MOCLDY    82  69  64 SE5       30.05R

......OKLAHOMA.......

CITY           SKY/WX    TMP DP  RH WIND       PRES   REMARKS
TULSA          CLEAR     80  71  74 SE8       29.99R
PONCA CITY     CLEAR     83  69  62 SE13      29.97R
MCALESTER      CLEAR     82  64  54 S5        30.02R
OKLAHOMA CITY  PTCLDY    81  63  54 S9        30.00R

......IOWA............

CITY           SKY/WX    TMP DP  RH WIND       PRES   REMARKS
DES MOINES     MOCLDY    80  69  69 S8        29.97R
QUAD CITIES    CLEAR     80  70  71 S6        30.00R

......ILLINOIS........

CITY           SKY/WX    TMP DP  RH WIND       PRES   REMARKS
QUINCY         CLEAR     80  69  69 S7        30.04R
CHICAGO        PTCLDY    80  72  76 S7        30.01R



USA.gov is the U.S. government's official web portal to all federal, state and local government web resources and services.